Showing default

ETS 6, 23230

Orbit data source: Space-Track

ETS 6, 23230 is a payload satellite owned by NASDA (JP) in HEO that was launched on Sun, 28 Aug 1994 UTC via an H-II launch vehicle from the Tanegashima Space Center (TNSTA). Payload-class satellites include a variety of spacecraft equipped with specific instruments for various scientific and technological missions. These include communications satellites like Starlink; space stations such as the ISS; scientific satellites like the Hubble; Earth observation satellites from companies like Planet Labs, Umbra, and HawkEye 360; GPS; miniature CubeSats for education and research; and military/defense satellites.

Loading next visibility...
Identifier
23230, 1994-056A
Orbit
HEO
Country
Flag of JPJP / JPN
Related business
Manufacturer
Toshiba
Mission
Non-operational Civil Communications
Bus & Motor
ETS-6, Unknown motor
Mass
3,800 kg wet, 1,950 kg dry
Launch date (UTC)
1994-08-28 (32 years ago)
Launch vehicle
H-II
Launch site
Tanegashima Space Center (TNSTA)
Object type
Payload
Rocket body
Debris
Shape & HBR
Hex Poly + 2 Pan, 15.2 m
Radar Cross Section
28.040 m², Large (>1 m²)

Expand to show TLE details & history
Last TLE update: 6 hours ago

TLE from 6 hours ago
0 ETS 6
1 23230U 94056A   26169.76649590 -.00000112  00000-0  00000+0 0  9998
2 23230  12.5375 240.4703 5057904 182.6946 210.9257  1.67089453194273
Epoch: 2026-06-18T18:23Z
TLE epoch observation values (Epoch: 2026-06-18T18:23:45.245Z)
Latitude
3.13513°
Longitude
71.84406°
Altitude
37,844.921 km
Speed
2.177 km/s
True Right ascension
16h 59m 09s
True Declination
3° 07' 56"
Sunlit
Object was in daylight at epoch
Visualization orbit readout
Latitude
Unknown
Longitude
Unknown
Altitude
Unknown
Speed
Unknown
Apparent Right ascension
Unknown
Apparent Declination
Unknown
Sunlit
N/A
Visualization observer readout
Local Sidereal Time
11:18:00
Azimuth
Unknown
Elevation
Unknown
Doppler factor
Unknown
Orbital elements
Apogee altitude
38,796.851 km
Perigee altitude
8,448.57 km
Semi-major axis
30,000.847 km
Eccentricity
0.50579
Inclination
12.5375°
RAAN
240.4703°
Arg. of periapsis
182.6946°
True anomaly
191.939°
Mean anomaly
210.9257°
Eccentric anomaly
200.68786°
Mean motion
0.41768 °/min
Orbital period
861.91 mins
BSTAR
0
Loading maneuver chart data...
Computing Atmospheric mass density...
Loading historical data...
Loading historical data...
Loading historical data...
Loading historical data...
Loading historical data...
Loading historical data...
Loading historical data...
Other satellites on launch #56 in the year 1994 (1994-08-28 UTC)

Documentation

Showing up to 5 results
|